Wind_Speed
35 34 34 34 34 34 35 36 36 34 33 33 33 32 32 31 31 32 31 31 31 31 31 30 30 30 30 30 29 30 30 30 32 33 33 33 34 34 35 35 35 36 37 38
35 35 35 35 34 34 35 35 35 34 33 33 33 33 32 32 32 33 33 33 33 33 32 32 32 31 31 31 31 31 31 32 32 33 33 34 34 34 35 35 35 35 35 37
35 35 36 36 33 33 33 34 34 33 33 33 33 33 33 33 33 34 34 34 34 34 34 34 33 33 33 33 32 33 33 33 34 34 34 33 33 34 35 35 35 36 36 37
34 33 34 33 32 32 32 32 32 32 32 33 33 33 33 33 33 33 34 34 35 35 35 35 35 34 34 34 34 34 35 35 36 36 36 35 35 35 34 35 36 36 37 37
31 32 32 32 30 30 31 32 32 32 33 33 33 33 33 33 33 33 34 34 34 34 35 35 35 35 35 35 36 36 36 36 36 36 36 36 36 36 36 36 37 37 38 38
30 31 31 31 30 30 31 31 31 32 32 32 32 33 33 33 33 33 34 34 35 35 35 35 35 36 36 36 37 37 37 36 37 36 36 36 36 37 37 37 37 38 38 39
30 31 31 30 29 29 30 30 30 31 31 31 31 33 33 34 34 35 35 35 35 35 35 35 35 36 36 36 36 36 36 37 37 37 37 37 37 37 38 38 38 38 39 40
30 30 30 29 29 29 29 29 30 31 31 31 31 32 33 34 34 35 36 36 36 35 36 36 36 36 36 36 36 36 36 36 36 36 36 37 37 38 39 39 39 39 39 40
29 30 30 30 29 29 29 29 30 30 31 32 32 33 33 34 35 36 36 37 37 37 37 37 36 36 36 36 36 35 34 34 35 35 36 36 36 36 37 38 38 39 39 39
29 29 29 29 29 29 29 29 30 30 30 31 32 33 34 34 35 36 36 37 37 37 36 36 35 35 35 35 35 35 34 34 34 34 34 35 35 35 36 37 38 38 39 40
28 28 28 28 28 27 28 28 29 29 30 30 31 31 32 33 34 35 35 36 36 36 35 35 34 34 35 35 35 35 35 35 34 34 33 34 34 35 36 37 38 39 39 40
27 27 27 27 27 27 27 27 28 28 28 29 28 28 28 29 30 31 31 32 33 33 33 33 34 34 35 35 35 35 35 34 34 33 33 34 34 35 36 37 38 39 39 39
26 26 26 26 26 26 26 26 26 27 27 27 27 27 27 28 28 28 29 29 29 30 31 31 32 32 33 33 33 32 32 32 31 32 32 33 33 33 34 35 36 37 37 37
24 25 24 24 24 24 25 25 25 25 26 26 26 26 26 27 27 27 27 28 28 29 29 30 30 31 31 31 31 31 31 31 31 31 32 32 32 33 33 33 34 34 35 35
23 23 23 22 23 23 23 23 23 24 25 26 26 26 26 26 27 27 27 28 28 28 28 28 29 30 30 29 30 30 30 30 30 31 32 32 32 33 33 33 33 32 32 32
22 21 21 22 22 23 23 23 23 24 25 26 26 27 27 27 27 27 28 28 27 27 27 28 28 28 28 28 29 29 30 30 31 31 31 31 32 32 32 32 32 32 32 32
21 21 21 22 22 23 24 24 24 25 25 26 26 27 27 28 27 28 28 28 28 28 28 28 28 28 28 28 28 29 29 30 30 30 30 30 30 31 30 30 30 31 32 32
20 21 21 22 22 23 23 24 25 25 26 26 27 27 28 28 28 28 27 27 27 27 27 27 27 26 26 26 27 28 29 29 29 29 30 30 30 30 30 30 30 31 31 31
20 21 21 21 22 23 24 24 25 26 27 27 27 27 27 28 28 27 27 27 27 27 27 27 27 27 27 28 28 28 28 28 28 29 29 29 30 30 30 30 30 31 31 31
18 19 20 21 22 23 24 24 24 25 26 27 27 27 27 27 27 27 27 27 27 27 27 27 28 28 28 28 28 28 28 28 28 28 29 29 29 29 30 30 30 30 30 30
18 18 19 20 21 22 22 23 23 24 25 25 26 26 26 27 27 27 28 28 28 28 27 27 27 28 28 28 28 28 29 28 28 29 29 30 30 31 31 31 31 31 31 31
18 18 19 20 20 21 21 22 23 23 24 24 25 25 26 26 27 27 28 28 28 28 28 27 28 28 28 28 28 28 29 29 29 30 30 30 30 31 31 31 32 32 32 32
19 20 20 20 21 21 22 23 24 24 24 24 24 24 24 25 25 26 26 26 26 27 27 27 27 28 28 28 28 28 29 29 30 30 30 31 31 31 31 31 31 31 31 31
19 19 20 20 21 22 22 23 23 23 23 23 23 23 23 23 24 24 25 25 25 25 25 26 26 26 26 27 27 28 29 29 30 30 30 30 30 30 30 30 30 30 29 29
17 18 19 19 20 21 22 22 23 23 23 23 23 23 23 23 23 23 23 24 24 24 25 25 25 25 26 26 26 27 27 28 28 28 29 29 29 29 29 29 28 28 27 27
17 17 18 19 20 21 21 22 22 22 22 22 23 23 23 23 23 23 23 24 24 24 25 25 25 26 26 26 27 27 27 27 27 26 27 27 27 27 27 26 26 26 25 25
17 18 19 20 20 21 20 20 21 21 21 21 22 23 23 23 23 22 22 23 23 24 25 25 25 26 26 26 26 26 26 26 25 25 26 26 25 25 25 24 24 23 23 23
Wind_Direction
265 265 265 262 261 263 263 263 264 264 263 263 263 264 266 265 264 263 264 265 266 268 270 271 271 272 270 268 268 268 267 265 265 265 263 263 264 265 264 262 261 260 260 259
264 264 264 262 261 262 262 261 262 261 260 261 262 263 264 264 263 262 263 264 266 268 269 270 270 272 271 269 268 268 268 268 268 267 265 264 264 264 264 263 263 262 262 261
265 263 263 261 261 262 262 262 262 261 260 261 261 262 263 264 263 263 264 264 265 267 268 269 269 270 271 269 269 269 270 270 269 268 267 264 263 264 264 263 263 263 264 264
266 264 261 262 261 262 261 260 260 260 260 260 261 262 262 263 265 265 264 264 264 266 268 270 271 271 271 271 271 272 272 271 270 269 268 266 265 263 264 265 265 265 265 265
266 266 265 262 261 262 262 261 260 260 260 260 260 261 262 264 265 266 264 264 264 265 267 270 271 271 271 271 271 272 272 272 271 271 268 266 265 265 266 267 266 266 267 267
265 265 266 266 263 263 263 263 261 262 262 262 261 262 263 265 266 266 265 266 266 267 268 270 271 272 273 273 271 271 271 270 270 270 268 267 266 267 268 268 267 268 268 267
264 265 266 267 265 263 264 265 264 264 264 263 263 265 266 267 267 266 266 266 267 269 269 270 271 272 273 273 272 272 271 270 270 269 269 268 267 267 267 268 268 268 268 268
262 263 265 268 267 264 264 263 264 264 265 266 266 267 268 270 270 268 268 268 269 269 270 270 271 271 271 272 272 271 271 271 270 269 268 268 267 267 267 267 268 267 267 268
262 262 264 266 267 265 264 265 266 268 269 270 270 271 271 272 271 269 269 269 270 270 271 271 272 272 271 272 272 272 272 272 271 269 269 268 267 268 268 268 268 268 269 269
260 261 263 265 265 266 265 265 266 268 271 273 273 273 273 271 269 269 269 270 271 271 271 272 272 272 272 272 272 272 271 272 272 271 270 269 268 269 270 270 270 271 272 272
259 259 260 261 264 266 267 267 267 268 270 272 273 272 272 271 271 271 271 271 271 271 272 271 271 271 271 272 272 272 271 272 271 270 270 270 270 271 272 273 273 273 273 274
260 258 259 261 262 264 266 268 269 269 271 272 272 272 272 274 274 273 272 271 271 272 271 271 271 270 270 270 271 271 271 271 270 269 269 270 271 272 273 274 274 274 273 274
261 259 261 262 264 264 265 266 268 270 271 272 272 272 273 275 274 274 273 272 272 272 272 272 272 271 270 270 271 271 271 270 270 270 271 271 272 272 273 274 275 275 275 275
262 261 261 262 264 265 266 266 267 269 271 271 271 273 275 275 275 275 274 273 273 272 272 272 271 271 270 270 270 271 271 270 271 271 271 271 272 273 274 275 276 276 277 276
260 259 259 260 263 266 267 269 269 270 270 271 272 274 276 277 276 276 276 275 274 274 273 272 271 271 270 271 270 270 270 270 271 272 273 273 273 273 274 276 275 275 276 276
257 259 261 262 264 266 268 270 271 273 273 273 274 275 276 278 278 277 276 274 273 274 274 273 273 272 272 271 270 270 270 270 272 273 274 274 275 275 275 275 275 277 277 276
259 259 262 265 267 268 269 271 272 273 275 276 276 277 278 278 278 277 275 274 273 274 275 275 275 274 273 273 272 272 271 271 273 273 273 274 275 276 275 275 276 277 277 277
263 263 265 267 268 269 270 273 274 275 276 278 278 279 279 278 277 276 276 275 275 275 275 275 275 274 273 273 274 274 273 272 272 273 274 275 275 274 275 276 277 277 277 277
267 267 267 269 271 272 273 275 276 276 277 278 278 278 278 278 277 276 276 276 276 277 276 276 274 273 273 273 275 275 274 273 273 273 274 274 274 274 275 276 277 278 279 278
271 271 272 274 275 275 276 276 278 278 278 278 278 277 277 277 277 277 277 278 278 278 278 277 276 276 276 276 276 275 274 273 273 274 274 274 274 275 276 277 278 279 279 279
274 275 276 278 278 278 278 278 279 280 280 280 279 278 277 277 277 278 279 279 278 278 278 278 278 278 279 278 277 276 275 274 274 274 273 273 274 276 276 277 277 278 279 279
274 275 277 279 279 280 281 282 283 283 283 282 281 280 278 278 279 279 279 279 278 277 277 278 279 280 279 279 278 277 277 276 276 276 276 276 276 276 276 276 277 277 277 278
274 276 277 279 281 282 282 283 284 285 285 284 283 282 281 280 279 280 280 280 279 278 278 278 279 279 279 278 279 279 279 277 277 277 277 277 278 278 277 277 277 277 277 278
277 277 279 281 283 284 284 285 285 285 285 284 284 283 283 283 283 283 282 280 279 278 278 278 280 281 281 281 281 281 281 280 279 279 279 278 278 278 278 277 278 278 278 277
283 283 283 284 285 285 286 286 286 286 286 285 284 284 284 285 285 285 284 282 280 279 279 280 281 282 282 283 284 284 284 283 282 281 280 279 279 279 278 277 277 277 277 277
288 287 287 288 288 288 287 287 287 287 286 286 285 285 286 287 286 285 284 283 283 282 281 282 283 283 283 284 285 285 285 285 284 282 281 280 280 279 277 276 276 276 275 275
292 293 293 292 291 290 289 288 288 288 288 288 288 288 289 288 288 287 285 285 285 285 284 284 283 283 284 285 286 286 285 284 283 282 281 280 280 279 278 276 275 273 273 275
Height
5601 5601 5601 5602 5603 5604 5604 5605 5605 5608 5609 5609 5609 5609 5610 5610 5611 5611 5612 5612 5613 5613 5613 5613 5612 5612 5611 5611 5611 5610 5610 5610 5609 5609 5608 5608 5608 5608 5608 5609 5609 5610 5610 5611
5590 5591 5590 5591 5593 5593 5594 5595 5596 5597 5598 5599 5599 5599 5600 5600 5601 5602 5602 5603 5603 5603 5603 5603 5603 5603 5603 5602 5602 5601 5601 5600 5600 5599 5599 5599 5599 5599 5599 5599 5600 5600 5600 5601
5580 5580 5579 5581 5584 5584 5584 5585 5586 5587 5589 5589 5589 5590 5590 5590 5591 5591 5592 5593 5593 5593 5593 5594 5594 5593 5593 5592 5592 5591 5591 5591 5590 5590 5589 5589 5589 5589 5589 5590 5590 5590 5591 5591
5568 5570 5569 5574 5574 5574 5574 5575 5575 5576 5577 5578 5579 5579 5580 5580 5581 5581 5582 5583 5583 5583 5583 5583 5583 5583 5583 5582 5582 5581 5581 5580 5580 5579 5579 5579 5579 5579 5579 5580 5580 5580 5580 5580
5559 5559 5559 5563 5564 5564 5564 5565 5566 5566 5567 5568 5569 5569 5570 5570 5570 5571 5571 5572 5573 5573 5573 5573 5573 5573 5573 5572 5571 5571 5570 5569 5569 5569 5569 5569 5569 5569 5569 5569 5570 5570 5570 5570
5549 5549 5550 5554 5554 5554 5555 5555 5557 5556 5557 5558 5559 5560 5561 5560 5560 5560 5561 5561 5562 5562 5562 5562 5562 5562 5562 5561 5561 5560 5559 5559 5558 5558 5558 5558 5558 5558 5558 5559 5559 5559 5559 5559
5540 5540 5541 5543 5544 5545 5547 5547 5547 5547 5547 5548 5548 5549 5550 5549 5550 5550 5550 5551 5551 5551 5551 5551 5551 5551 5551 5550 5550 5549 5549 5548 5548 5548 5547 5547 5548 5548 5548 5548 5548 5548 5548 5548
5532 5532 5535 5534 5534 5536 5536 5536 5537 5537 5538 5538 5538 5538 5538 5538 5539 5539 5539 5539 5540 5540 5540 5539 5539 5539 5539 5539 5538 5538 5538 5537 5537 5537 5537 5537 5537 5537 5537 5537 5537 5536 5536 5536
5524 5525 5524 5525 5525 5526 5526 5527 5527 5527 5528 5528 5528 5528 5528 5527 5527 5528 5528 5528 5528 5528 5528 5528 5527 5527 5528 5528 5527 5527 5527 5526 5526 5526 5526 5526 5526 5526 5526 5526 5525 5525 5525 5524
5514 5515 5515 5516 5516 5516 5517 5517 5517 5518 5518 5517 5517 5517 5517 5516 5516 5516 5516 5516 5516 5517 5517 5516 5516 5516 5516 5516 5516 5516 5516 5516 5515 5515 5515 5515 5515 5515 5515 5514 5514 5514 5513 5512
5505 5506 5507 5507 5507 5508 5508 5508 5508 5508 5508 5507 5507 5506 5506 5506 5505 5505 5505 5505 5505 5505 5505 5505 5505 5504 5504 5504 5505 5505 5505 5505 5505 5504 5504 5504 5504 5504 5503 5503 5502 5502 5501 5500
5496 5497 5498 5499 5499 5499 5499 5499 5499 5498 5498 5498 5497 5497 5496 5496 5495 5495 5495 5494 5494 5494 5494 5494 5494 5493 5493 5493 5493 5493 5493 5493 5493 5493 5493 5493 5493 5493 5492 5491 5490 5489 5488 5487
5487 5488 5489 5489 5489 5489 5490 5490 5489 5489 5489 5489 5488 5488 5487 5487 5486 5486 5485 5485 5484 5484 5483 5483 5483 5483 5482 5482 5482 5482 5482 5482 5483 5482 5482 5482 5482 5481 5481 5480 5479 5477 5476 5475
5479 5479 5480 5481 5481 5481 5481 5481 5481 5481 5480 5480 5480 5479 5479 5478 5477 5477 5476 5475 5475 5474 5473 5473 5473 5472 5472 5472 5472 5472 5472 5472 5472 5472 5472 5472 5471 5471 5470 5469 5468 5466 5465 5464
5471 5471 5472 5473 5473 5473 5473 5473 5473 5473 5472 5472 5471 5471 5470 5469 5468 5468 5467 5466 5465 5465 5464 5463 5463 5462 5462 5462 5462 5462 5462 5462 5462 5462 5461 5461 5461 5460 5459 5458 5457 5456 5455 5453
5464 5464 5465 5465 5466 5466 5466 5465 5465 5465 5464 5464 5463 5462 5462 5461 5460 5459 5458 5457 5456 5456 5455 5454 5453 5453 5452 5452 5452 5452 5452 5452 5451 5451 5451 5450 5450 5450 5449 5448 5447 5446 5444 5443
5457 5457 5458 5458 5458 5458 5458 5458 5457 5457 5456 5455 5455 5454 5453 5452 5451 5450 5449 5448 5447 5447 5446 5445 5444 5444 5443 5443 5442 5442 5442 5442 5441 5441 5441 5440 5440 5439 5439 5438 5436 5435 5434 5432
5450 5450 5451 5451 5451 5450 5450 5450 5449 5448 5448 5447 5446 5445 5444 5443 5442 5442 5441 5440 5439 5438 5437 5436 5436 5435 5434 5434 5433 5433 5432 5432 5431 5431 5431 5430 5430 5429 5429 5428 5426 5425 5423 5421
5443 5443 5444 5444 5443 5443 5442 5442 5441 5440 5439 5438 5437 5436 5436 5435 5434 5433 5432 5431 5431 5430 5429 5428 5427 5426 5426 5425 5424 5424 5423 5422 5422 5421 5421 5420 5420 5419 5418 5417 5416 5414 5413 5411
5437 5437 5436 5436 5436 5435 5434 5434 5432 5431 5430 5429 5428 5428 5427 5426 5425 5424 5424 5423 5422 5421 5420 5419 5418 5417 5417 5416 5415 5414 5414 5413 5413 5412 5411 5411 5410 5409 5408 5407 5405 5404 5402 5400
5431 5430 5430 5429 5428 5427 5427 5426 5425 5423 5422 5421 5420 5419 5419 5418 5417 5416 5415 5414 5413 5412 5411 5410 5409 5409 5408 5407 5406 5405 5404 5404 5403 5402 5402 5401 5400 5399 5398 5396 5395 5393 5391 5390
5424 5424 5423 5422 5421 5421 5419 5418 5417 5416 5414 5413 5412 5411 5410 5409 5408 5407 5406 5405 5404 5403 5402 5401 5400 5400 5399 5397 5397 5396 5395 5394 5393 5393 5392 5391 5389 5388 5387 5385 5384 5382 5381 5379
5418 5417 5416 5416 5415 5414 5412 5411 5410 5408 5407 5405 5404 5403 5402 5400 5399 5398 5397 5396 5395 5394 5393 5392 5391 5390 5389 5388 5387 5386 5385 5384 5383 5382 5381 5380 5379 5378 5376 5375 5373 5372 5370 5369
5412 5411 5410 5409 5408 5406 5405 5404 5402 5401 5399 5398 5397 5395 5394 5393 5391 5390 5389 5387 5386 5385 5385 5384 5382 5381 5380 5379 5378 5376 5375 5374 5373 5372 5371 5369 5368 5367 5366 5364 5363 5362 5360 5359
5405 5404 5403 5402 5400 5399 5398 5396 5395 5393 5392 5390 5389 5387 5386 5385 5384 5382 5381 5379 5378 5377 5376 5375 5374 5372 5371 5370 5368 5367 5365 5364 5363 5361 5360 5359 5358 5357 5356 5354 5353 5352 5351 5350
5399 5398 5396 5395 5393 5392 5390 5389 5387 5386 5384 5383 5381 5380 5378 5377 5376 5374 5373 5371 5370 5369 5367 5366 5365 5363 5362 5361 5359 5358 5356 5355 5353 5352 5351 5349 5348 5347 5346 5345 5344 5343 5342 5341
5393 5392 5390 5388 5386 5385 5383 5382 5380 5379 5377 5375 5374 5372 5370 5369 5367 5366 5365 5363 5362 5360 5359 5357 5356 5354 5353 5351 5350 5348 5347 5345 5344 5343 5342 5340 5339 5338 5337 5336 5335 5335 5334 5334